GW0492 Weather Reports


Display with metric or nautical units.
time (UTC)temp
F
wind
direction
speed
MPH
gust
MPH
rain 1hr
in
rain 24hr
in
rain mn
in
humidity
%
barometer
mb
20260510061017 50 0.0 0.0 0.00 0.13 0.00 95 997.7
20260510060017 50 0.0 0.0 0.00 0.13 0.00 95 997.7
20260510055017 49 0.0 0.0 0.00 0.13 0.00 95 997.8
20260510054017 49 0.0 1.0 0.00 0.13 0.00 94 997.8
20260510053017 48 0.0 0.0 0.00 0.13 0.00 94 997.4
20260510052037 48 0.0 0.0 0.00 0.13 0.00 93 997.2
20260510051017 49 0.0 0.0 0.00 0.13 0.00 93 997.2
20260510050017 49 0.0 0.0 0.00 0.13 0.00 93 997.2
20260510045017 49 0.0 0.0 0.00 0.13 0.00 93 997.3
20260510044017 50 0.0 0.0 0.00 0.13 0.00 93 997.4
20260510043017 50 0.0 0.0 0.00 0.13 0.00 93 997.4
20260510042017 50 0.0 0.0 0.00 0.13 0.00 93 997.5
20260510041017 50 0.0 0.0 0.00 0.13 0.00 93 997.5
20260510040017 50 0.0 0.0 0.00 0.13 0.13 93 997.4
20260510035016 50 0.0 0.0 0.00 0.13 0.13 93 997.4
20260510034016 50 0.0 0.0 0.00 0.13 0.13 92 997.4
20260510033016 50 0.0 0.0 0.00 0.13 0.13 92 997.3
20260510032016 51 0.0 0.0 0.00 0.13 0.13 92 997.2
20260510031036 51 0.0 0.0 0.00 0.13 0.13 92 997.1
20260510030016 51 0.0 0.0 0.00 0.13 0.13 92 997.2
20260510025016 51 0.0 0.0 0.00 0.13 0.13 92 997.3
20260510024016 51 0.0 0.0 0.00 0.13 0.13 91 997.2
20260510023016 51 0.0 0.0 0.00 0.13 0.13 91 997.1
20260510022016 52 0.0 0.0 0.00 0.13 0.13 91 997.1
20260510021016 52 0.0 0.0 0.00 0.13 0.13 91 997.1
20260510020056 52 0.0 0.0 0.00 0.13 0.13 90 997.0
20260510015016 52 0.0 0.0 0.00 0.13 0.13 89 996.8
20260510014056 53 0.0 0.0 0.00 0.13 0.13 89 996.8
20260510013016 53 0.0 0.0 0.00 0.13 0.13 88 996.9
20260510012016 54 0.0 0.0 0.00 0.13 0.13 87 996.8
20260510011036 54 0.0 0.0 0.00 0.13 0.13 86 996.7
20260510010016 55 0.0 0.0 0.00 0.13 0.13 86 996.6
20260510005016 56 0.0 0.0 0.00 0.13 0.13 84 996.5
20260510004016 56 0.0 0.0 0.00 0.13 0.13 83 996.4
20260510003036 57 0.0 0.0 0.00 0.13 0.13 82 996.3
20260510002016 58 0.0 0.0 0.00 0.13 0.13 81 996.1
20260510001016 59 0.0 0.0 0.00 0.13 0.13 80 996.0
20260510000016 60 0.0 0.0 0.00 0.13 0.13 78 995.8
20260509235036 61 0.0 0.0 0.00 0.13 0.13 76 995.9
20260509234016 62 0.0 0.0 0.00 0.13 0.13 74 995.8
20260509233016 62 0.0 2.0 0.00 0.13 0.13 74 995.9
20260509232016 62 0.0 0.0 0.00 0.13 0.13 74 995.8
20260509231015 63 0.0 0.0 0.00 0.13 0.13 73 995.9
20260509230015 63 0.0 0.0 0.00 0.13 0.13 73 995.8
20260509225016 63 0.0 0.0 0.00 0.13 0.13 75 995.8
20260509224016 62 0.0 0.0 0.00 0.13 0.13 78 995.7
20260509223016 61 0.0 0.0 0.00 0.13 0.13 78 995.8
20260509222015 61 0.0 0.0 0.00 0.13 0.13 81 995.9
20260509221035 60 0.0 0.0 0.00 0.13 0.13 84 996.0
20260509220015 59 0.0 0.0 0.00 0.13 0.13 84 996.1
20260509215015 59 0.0 0.0 0.00 0.13 0.13 85 996.1
20260509214015 58 0.0 0.0 0.00 0.13 0.13 86 995.9
20260509213015 58 0.0 0.0 0.00 0.13 0.13 87 996.0
20260509212016 58 0.0 0.0 0.00 0.13 0.13 87 996.0
20260509211016 57 0.0 0.0 0.00 0.13 0.13 89 996.2
20260509210035 57 0.0 0.0 0.00 0.13 0.13 88 996.4
20260509205015 57 0.0 2.0 0.00 0.13 0.13 89 996.5
20260509204015 57 0.0 1.0 0.00 0.13 0.13 89 996.5
20260509203015 57 0.0 1.0 0.00 0.13 0.13 91 996.7
20260509202035 56 0.0 0.0 0.00 0.13 0.13 90 996.6
20260509201035 56 0.0 0.0 0.00 0.13 0.13 91 996.6
20260509200015 56 0.0 0.0 0.01 0.13 0.13 91 996.6
20260509195035 56 0.0 0.0 0.01 0.13 0.13 91 996.6
20260509194035 56 0.0 0.0 0.02 0.13 0.13 92 996.7
20260509193015 56 0.0 0.0 0.03 0.13 0.13 92 996.9
20260509192018 55 0.0 0.0 0.03 0.13 0.13 92 997.0
20260509191037 56 0.0 2.0 0.04 0.13 0.13 92 997.2
20260509190017 55 0.0 3.0 0.03 0.12 0.12 91 997.6
20260509185017 55 0.0 2.0 0.03 0.12 0.12 91 997.9
20260509184017 55 0.0 1.0 0.03 0.11 0.11 91 997.7
20260509183017 55 0.0 1.0 0.02 0.10 0.10 91 998.0
20260509182017 55 0.0 0.0 0.03 0.10 0.10 90 997.8
20260509181017 56 0.0 2.0 0.03 0.09 0.09 90 998.0
20260509180017 56 0.0 1.0 0.06 0.09 0.09 90 997.9
20260509175017 55 0.0 1.0 0.07 0.09 0.09 90 997.8
20260509174037 55 0.0 1.0 0.07 0.08 0.08 89 997.8
20260509173037 55 0.0 2.0 0.07 0.08 0.08 89 997.7
20260509172017 55 203 1.0 4.0 0.07 0.07 0.07 88 997.7
20260509171037 56 0.0 2.0 0.06 0.06 0.06 86 997.4
20260509170037 57 0.0 2.0 0.03 0.03 0.03 85 997.8
20260509165017 58 135 1.0 9.0 0.02 0.02 0.02 85 998.1
20260509164017 59 0.0 0.0 0.01 0.01 0.01 85 998.1
20260509163017 59 0.0 2.0 0.01 0.01 0.01 83 998.0
20260509162017 59 0.0 1.0 0.00 0.00 0.00 80 998.1
20260509161017 60 113 1.0 4.0 0.00 0.00 0.00 79 998.1
20260509160017 60 0.0 0.0 0.00 0.00 0.00 79 998.1
20260509155017 59 113 2.0 7.0 0.00 0.00 0.00 77 998.2
20260509154017 59 90 1.0 3.0 0.00 0.00 0.00 78 998.2
20260509153037 59 0.0 2.0 0.00 0.00 0.00 79 998.2
20260509152017 59 0.0 3.0 0.00 0.00 0.00 79 998.2
20260509151017 58 68 1.0 5.0 0.00 0.00 0.00 79 998.2
20260509150017 58 90 1.0 3.0 0.00 0.00 0.00 79 998.2
20260509145037 58 0.0 0.0 0.00 0.00 0.00 79 998.0
20260509144037 58 0.0 0.0 0.00 0.00 0.00 78 997.9
20260509143017 58 0.0 0.0 0.00 0.00 0.00 79 998.1
20260509142017 58 0.0 0.0 0.00 0.00 0.00 79 998.1
20260509141037 58 0.0 0.0 0.00 0.00 0.00 80 998.0
20260509140017 58 0.0 0.0 0.00 0.00 0.00 79 998.0
20260509135017 58 0.0 0.0 0.00 0.00 0.00 79 998.0
20260509134037 57 113 1.0 6.0 0.00 0.00 0.00 78 997.9
20260509133016 57 0.0 2.0 0.00 0.00 0.00 79 997.8
20260509132017 57 45 1.0 6.0 0.00 0.00 0.00 79 998.0
20260509131016 57 0.0 1.0 0.00 0.00 0.00 80 997.9
20260509130017 56 0.0 1.0 0.00 0.00 0.00 80 997.8
20260509125016 56 0.0 0.0 0.00 0.00 0.00 81 997.8
20260509124017 56 0.0 0.0 0.00 0.00 0.00 80 997.9
20260509123016 55 0.0 0.0 0.00 0.00 0.00 80 998.0
20260509122016 55 0.0 0.0 0.00 0.00 0.00 80 998.2
20260509121017 55 0.0 0.0 0.00 0.00 0.00 81 998.2
20260509120016 54 0.0 0.0 0.00 0.00 0.00 81 998.1
20260509115016 54 0.0 0.0 0.00 0.00 0.00 83 998.0
20260509114016 53 0.0 0.0 0.00 0.00 0.00 84 997.9
20260509113016 53 0.0 0.0 0.00 0.00 0.00 84 997.9
20260509112016 53 0.0 0.0 0.00 0.00 0.00 84 997.8
20260509111036 52 0.0 0.0 0.00 0.00 0.00 84 997.9
20260509110016 52 0.0 0.0 0.00 0.00 0.00 85 997.8
20260509105016 52 0.0 3.0 0.00 0.00 0.00 85 997.8
20260509104016 52 0.0 0.0 0.00 0.00 0.00 84 997.5
20260509103016 52 0.0 1.0 0.00 0.00 0.00 84 997.6
20260509102016 51 0.0 1.0 0.00 0.00 0.00 85 997.5
20260509101016 51 0.0 0.0 0.00 0.00 0.00 85 997.6
20260509100016 51 0.0 0.0 0.00 0.00 0.00 86 997.4
20260509095016 51 0.0 0.0 0.00 0.00 0.00 86 997.6
20260509094016 51 0.0 0.0 0.00 0.00 0.00 87 997.7
20260509093016 51 0.0 0.0 0.00 0.00 0.00 87 997.8
20260509092016 51 0.0 0.0 0.00 0.00 0.00 87 997.8
20260509091016 51 0.0 0.0 0.00 0.00 0.00 87 997.8
20260509090016 51 0.0 0.0 0.00 0.00 0.00 86 997.7
20260509085016 51 0.0 0.0 0.00 0.00 0.00 86 997.8
20260509084016 51 0.0 0.0 0.00 0.00 0.00 87 998.1
20260509083016 51 0.0 0.0 0.00 0.00 0.00 85 998.2
20260509082016 51 0.0 0.0 0.00 0.00 0.00 85 998.3
20260509081016 51 0.0 0.0 0.00 0.00 0.00 84 998.4
20260509080016 52 0.0 0.0 0.00 0.00 0.00 84 998.5
20260509075016 52 0.0 0.0 0.00 0.00 0.00 83 998.4
20260509074016 52 0.0 0.0 0.00 0.00 0.00 83 998.2
20260509073016 52 0.0 0.0 0.00 0.00 0.00 81 998.2
20260509072016 53 0.0 0.0 0.00 0.00 0.00 81 998.1
20260509071016 53 0.0 0.0 0.00 0.00 0.00 80 998.0
20260509070048 53 0.0 0.0 0.00 0.00 0.00 81 998.3
20260509065016 53 0.0 0.0 0.00 0.00 0.00 81 998.3
20260509064016 54 0.0 0.0 0.00 0.00 0.00 82 998.3
20260509063016 54 0.0 0.0 0.00 0.00 0.00 81 998.3
20260509062015 54 0.0 0.0 0.00 0.00 0.00 81 998.5